Skip Page Navigation
NASA JPL Caltech
NASA Logo - Jet Propulsion Laboratory + View the NASA Portal
+ Center for Near-Earth Object Studies
JPL Home Earth Solar System Stars & Galaxies Technology
JPL Solar System Dynamics
BODIES ORBITS EPHEMERIDES TOOLS PHYSICAL DATA DISCOVERY FAQ SITE MAP
IMPORTANT: The SSD Announcement email list is now available. Major changes are coming in the near future, including possible hostname and/or URL changes. To be notified of such changes, subscribe to this email list.

Please visit this page for more details.


JPL Small-Body Database Browser
Search: [ help ]  
48733 (1997 CK6)
Classification: Main-belt Asteroid          SPK-ID: 2048733
Ephemeris | Orbit Diagram | Orbital Elements | Mission Design | Physical Parameters | Discovery Circumstances | Close-Approach Data ]

[ show orbit diagram ]
Orbital Elements at Epoch 2458600.5 (2019-Apr-27.0) TDB
Reference: JPL 16 (heliocentric ecliptic J2000)
 Element Value Uncertainty (1-sigma)   Units 
e .06306356387164662 4.827e-08  
a 2.314939759253741 1.1987e-08 au
q 2.168951407887028 1.1338e-07 au
i 6.509149751317668 5.7905e-06 deg
node 340.5039461147714 4.1176e-05 deg
peri 244.1827984207117 6.1661e-05 deg
M 31.72679283254558 4.7701e-05 deg
tp 2458487.121256438374
(2019-Jan-03.62125644)
0.00017028 TDB
period 1286.494600876134
3.52
9.9921e-06
2.736e-08
d
yr
n .2798301677712687 2.1734e-09 deg/d
Q 2.460928110620453 1.2743e-08 au
  Orbit Determination Parameters
   # obs. used (total)      658  
   data-arc span      8287 days (22.69 yr)  
   first obs. used      1995-08-25  
   last obs. used      2018-05-03  
   planetary ephem.      DE431  
   SB-pert. ephem.      SB431-N16  
   condition code      0  
   norm. resid. RMS      .58215  
   source      ORB  
   producer      Otto Matic  
   solution date      2019-Jul-13 02:47:40  

Additional Information
 Earth MOID = 1.17 au 
 Jupiter MOID = 2.53304 au 
 T_jup = 3.570 
[ show covariance matrix ]

Ephemeris | Orbit Diagram | Orbital Elements | Mission Design | Physical Parameters | Discovery Circumstances | Close-Approach Data ]

Physical Parameter Table
Parameter Symbol Value Units Sigma Reference Notes
absolute magnitude H 15.6   n/a MPO280000  

48733 (1997 CK6)          Discovered 1997-Feb-03 by NEAT at Haleakala
Reference: 20021120/Numbers.arcLast Updated: 2004-04-19

[ show close-approach data ]
Alternate Designations
 1997 CK6 = 1999 XM129 
Ephemeris | Orbit Diagram | Orbital Elements | Mission Design | Physical Parameters | Discovery Circumstances | Close-Approach Data ]
ABOUT SSD CREDITS/AWARDS PRIVACY/COPYRIGHT GLOSSARY LINKS
FirstGov
(server date/time)  
NASA Home Page
Site Manager:   Ryan S. Park
Webmaster  Alan B. Chamberlin